Reflectivity
-20 -20 -20 -20 -20 -20 -20 -20 -20 -20 -20 -20 -20 -20 -20 -20 -20 -20 -20 -20 -20 -20 -20 -20 -20 -20 2 -20 -6 6 -20 14 14 10 13 1 -5 -20 -20 -20 -20 -20 -20 -7 10 4 -20 -20 -20
-20 -20 -20 -20 -20 -20 -20 -20 -20 -20 -20 -20 -20 -20 -20 -20 -20 -20 -20 -20 -20 -20 -20 -8 -20 -20 -20 -20 -20 -20 -7 12 13 6 12 15 -6 2 3 -20 -20 -20 -20 -14 20 -1 -20 -20 -20
-20 -20 -20 -20 -20 -20 -20 -20 -20 -20 -20 -20 -20 -20 -20 -20 -20 -20 -20 -20 -20 -20 -20 -17 -20 -20 -16 -20 -8 15 -0 8 6 11 11 11 -20 -20 -20 -20 -20 -20 -7 -20 23 17 -20 -20 -20
-20 -20 -20 -20 -20 -20 -20 -20 -20 -20 -20 -20 -20 -20 -20 -20 -20 -20 -20 -20 -20 -20 -20 -19 -20 -20 -14 -20 -10 -19 -20 11 7 7 11 8 -20 -20 -20 -20 -20 -20 -4 -20 22 -19 1 -20 -20
-20 -20 -20 -20 -20 -20 -20 -20 -20 -20 -20 -20 -20 -20 -20 -20 -20 -20 -20 -20 -20 -20 -20 0 -20 -20 -20 12 -20 11 5 7 4 13 12 14 -9 -20 -20 -20 -10 -20 8 3 -9 7 -20 -20 -20
-20 -20 -20 -20 -20 -20 -20 -20 -20 -20 -20 -20 -20 -20 -20 -20 -20 -20 -20 -20 -20 -16 -14 2 -6 -20 0 11 -11 12 12 10 14 13 -20 5 -20 -20 -20 -20 10 6 12 -16 -3 -20 -20 -20 -20
-20 -20 -20 -20 -20 -20 -20 -20 -20 -20 -20 -20 -20 -20 -20 -20 -20 -20 -20 -20 -20 -15 -5 -16 8 -18 -16 2 -16 9 9 -20 12 11 -20 -10 -20 -20 -20 -15 2 -20 12 -16 -20 -20 -20 -20 -20
-20 -20 -20 -20 -20 -20 -20 -20 -20 -20 -20 -20 -20 -20 -20 -20 -20 -20 -20 -20 -20 -20 -20 -19 -6 4 -20 -20 -20 -11 8 6 15 15 10 -20 -20 -20 -20 2 10 5 -18 -20 -20 -20 -20 -20 -20
-20 -20 -20 -20 -20 -9 -20 -20 -20 -20 -20 -20 -20 -20 -20 -20 -19 -16 1 -20 -20 -20 -20 -20 -20 -20 -20 -20 -18 1 -20 -20 8 10 6 -20 -20 -20 -20 -20 -20 6 -15 -20 -20 -20 -20 -20 -20
-20 -20 -20 -20 -20 -6 3 -20 -20 -20 -20 -20 -20 -20 -20 -20 -14 -20 18 -7 -9 -14 -7 -7 -12 -20 -20 -20 -20 -11 -20 -20 -20 -14 -20 -20 -20 -20 -20 -20 -20 -19 -20 -20 -20 -4 -20 -20 -20
-20 -20 -20 -20 2 -3 8 -5 -20 -20 -20 -20 -20 -20 -20 -20 -16 -20 -20 -20 -20 -20 -19 -20 -3 -5 -20 -20 -20 -20 -20 -20 -20 -20 -20 -20 -20 -20 -20 -20 -20 -20 -20 -20 -20 -18 -20 -20 -20
-20 -20 -20 -20 -7 3 2 3 -20 -20 -20 -20 -20 -20 -20 -20 -13 -20 -8 -20 -20 -20 -20 8 -20 -7 -20 -20 -20 -20 -20 -20 -20 -20 -20 -20 -20 -20 -20 -20 -20 -20 -20 -20 -20 -20 -20 -20 -20
-20 -20 -20 -20 -20 -10 0 1 -20 -20 -20 -20 -20 -20 -20 -20 -20 -20 -17 -20 -20 -20 -20 0 -18 -18 -20 -20 -20 -20 -20 -20 -20 -20 -20 -20 -20 -20 -20 -20 -20 -20 -20 -20 -20 -20 -20 -20 -20
-19 -8 -20 -20 -20 -20 -5 -8 -20 -20 -20 -20 -20 -20 -20 -20 -20 -20 -20 -20 -20 -20 -20 -20 -18 2 -11 -20 -20 -20 -20 -20 -20 -20 -20 -20 -20 -20 -20 -3 -8 -20 -20 -20 -20 -20 -20 -20 -20
3 -20 -15 -20 -20 -20 -20 -19 -20 -20 -20 -20 -20 -20 -20 -20 -20 -20 -20 -20 -20 -20 -20 -20 -20 -19 -19 -20 -20 -20 -20 -20 -20 -20 -20 -20 -20 -20 -20 -20 -10 -20 -20 -20 -20 -20 -20 -20 -20
13 8 4 -20 -9 -14 -20 -20 -20 -20 -20 -20 -20 -20 -20 -20 -20 -20 -20 -20 -20 -20 -20 -20 -20 -20 -20 -20 -20 -20 -20 -20 -20 -20 -20 -20 -20 -20 -20 -20 -20 -20 -20 -20 -20 -20 -20 -20 -20
13 -20 -20 -20 -19 -10 -20 -20 -20 -20 -20 -20 -20 -20 -20 -20 -20 -20 -20 -20 -20 -20 -20 -20 -20 -20 -20 -20 -20 -15 -20 -20 -20 -20 -20 -20 -20 -20 -20 -20 -20 -20 -5 -20 -20 -20 -20 -20 -20
-14 -20 -20 -20 -6 -20 -20 -20 -20 -20 -20 -20 -20 -20 -20 -20 -20 -20 -20 -20 -20 -20 -20 -20 -20 -20 -20 -20 -1 14 -6 -20 -20 -20 -20 -20 -20 -20 -20 -20 -20 -20 -1 -8 -20 -20 -20 -20 -20
-20 -20 -20 -20 2 -20 -20 -20 -20 -20 -20 -20 -20 -20 -20 -20 -20 -20 -20 -20 -20 -20 -20 -20 -20 -20 -20 -2 -7 10 0 -9 -4 -20 -20 -20 -20 -20 -20 -20 -20 -20 -20 -3 -20 -20 -20 -20 -20
-20 -20 -20 -20 -3 -13 -20 -20 -20 -20 -20 -20 -20 -20 -20 -20 -20 -20 -20 -20 -20 -20 -20 -20 -20 -20 -20 -20 -20 -20 -17 -20 -15 2 -16 -17 -20 -20 -20 -7 5 -20 -20 -20 -20 -20 -20 -20 -20
6 -20 -20 -20 -20 -20 -20 -20 -20 -20 -20 -20 -20 -20 -20 -20 -20 -20 -20 -20 -20 -20 -20 -20 -20 -20 -20 -20 -20 -20 -20 -4 0 -11 -11 -20 -20 -20 -20 22 -20 8 -20 -20 -20 -20 -20 -20 -20
-10 -20 -20 -20 -20 -20 -20 -20 -20 -20 -20 -20 -20 -20 -20 -20 -20 -20 -20 -20 -20 -20 -20 -20 -20 -20 -20 -20 -20 -20 -20 -20 -20 -20 -20 -17 -20 -19 -18 -5 1 19 14 -20 -20 -20 -20 -20 -20
14 -7 -20 -20 -20 -20 -20 -20 -20 -20 -20 -20 -20 -20 -20 -20 -20 -20 -20 -20 -20 -20 -20 -20 -20 -20 -20 -20 -20 -20 -20 -20 -20 -20 -20 -20 -20 -20 10 9 -0 -17 -17 23 -20 17 -18 22 -18
29 -20 -20 -20 -20 -20 -20 -20 -20 -20 -20 -20 -20 -20 -20 -20 -20 -20 -20 -20 -20 -20 -20 -20 -20 -20 -20 -20 -20 -20 -20 -20 -20 -20 -20 -20 -8 -20 -20 -8 15 17 18 22 -6 24 25 21 16
36 24 9 -19 -20 -20 -20 -20 -20 -20 -20 -20 -20 -20 -20 -20 -20 -20 -20 -20 -20 -20 -20 -20 -20 -20 -20 -20 -20 -20 -20 -20 -20 -20 -20 -10 -20 -20 -20 -3 9 2 -20 15 21 23 23 23 19
-3 -8 -15 -20 -20 -20 -20 -20 -20 -20 -20 -20 -20 -20 -20 -20 -20 -20 -20 -20 -20 -20 -20 -20 -20 -20 -20 -20 -20 -20 -20 -20 -20 -20 -20 -9 0 -14 -20 -17 7 15 14 19 17 15 21 23 21
-20 5 -20 -20 -20 -20 -20 -20 -20 -20 -20 -20 -20 -20 -20 -20 -20 -20 -20 -20 -20 -20 -20 -20 -20 -20 -20 -20 -20 -20 -20 -20 -20 -20 -20 -20 -20 -20 -20 -20 -20 -20 -13 14 15 15 20 22 24
-20 -20 -20 -20 -20 -20 -20 -20 -20 -20 -20 -20 -20 -20 -20 -20 -20 -20 -20 -20 -20 -20 -20 -20 -20 -20 -20 -20 -20 -20 -20 -20 -20 -20 -20 -20 -20 -20 -20 -20 -20 -15 -16 -16 -20 9 15 18 21
-20 -20 -20 -20 -20 -20 -20 -20 -20 -20 -20 -20 -20 -20 -20 -20 -20 -20 -20 -20 -20 -20 -20 -20 -20 -20 -20 -20 -20 -20 -20 -20 -20 -20 -20 -20 -20 -20 -20 -20 -17 -8 14 9 16 -9 3 7 3
-20 -20 -20 -20 -20 -20 -20 -20 -20 -20 -20 -20 -20 -20 -20 -20 -20 -20 -20 -20 -20 -20 -20 -20 -20 -20 -20 -20 -20 -20 -20 -20 -20 -20 -20 -20 -20 -20 -20 -20 -20 -20 -20 -13 14 15 8 11 -5
Wind_Speed
8 5 3 5 7 6 11 6 1 3 5 2 3 7 2 8 4 2 2 6 8 17 17 17 15 14 13 14 13 14 14 16 15 12 11 11 11 10 10 8 7 7 6 9 12 14 12 11 11
6 5 4 2 8 10 11 9 7 7 2 8 3 6 8 1 2 2 6 5 14 15 16 16 14 14 15 15 13 15 16 16 16 13 9 8 8 9 9 7 6 6 7 7 10 14 12 10 11
7 6 6 6 9 15 11 9 9 3 3 2 2 3 2 2 2 2 3 11 15 14 14 15 14 14 15 16 15 14 15 16 15 14 11 9 7 7 7 6 6 4 9 8 12 14 12 10 11
6 5 4 11 16 17 15 2 3 7 4 1 6 4 3 4 2 3 10 15 16 14 14 16 13 13 14 15 12 13 14 15 14 12 10 7 7 6 7 6 6 11 9 8 14 14 12 11 11
5 4 11 15 22 17 13 5 7 9 1 1 7 2 3 4 3 7 13 14 13 13 13 16 13 13 14 15 13 13 12 13 12 12 10 7 6 7 7 3 11 12 13 14 14 12 11 9 10
7 8 12 18 22 20 13 13 13 11 5 4 5 5 1 4 5 7 11 13 14 13 13 14 12 11 12 14 13 11 10 12 13 12 11 9 8 8 7 4 12 11 12 12 11 10 9 9 9
14 12 20 20 21 19 18 16 15 12 9 8 4 5 3 4 6 6 9 12 13 11 12 12 14 12 9 10 10 10 10 12 13 13 10 9 8 8 8 6 5 9 9 10 9 9 8 8 8
10 9 21 19 17 23 16 12 8 16 17 1 3 6 5 4 8 8 6 11 12 11 13 12 12 12 12 11 8 10 9 11 11 12 11 10 9 7 8 5 8 7 8 7 8 8 8 8 8
5 10 17 22 21 16 6 14 9 2 9 8 7 4 4 2 8 9 9 10 9 10 12 11 11 11 10 9 9 7 8 9 10 10 11 11 8 10 10 5 7 7 8 7 7 8 9 9 7
11 14 20 13 11 12 11 13 12 9 12 12 10 5 3 7 9 11 11 10 10 11 9 10 11 11 10 7 9 11 10 10 10 10 12 9 8 7 6 7 7 7 7 7 8 9 9 9 6
13 17 12 6 7 7 11 11 7 10 12 12 13 5 3 5 9 10 11 10 11 11 9 11 10 10 10 8 7 5 5 6 7 12 11 9 7 7 6 6 7 8 7 7 8 9 7 6 4
11 16 8 6 5 6 9 7 9 11 3 5 7 4 1 6 10 10 11 11 11 12 12 12 12 10 11 7 7 7 7 7 7 9 11 8 6 8 7 6 7 6 7 7 7 5 6 6 5
16 6 13 9 5 3 6 7 9 11 8 4 3 2 2 2 9 10 9 9 10 12 11 11 11 11 11 11 8 8 8 8 9 9 11 9 9 8 8 7 7 6 6 7 6 6 6 6 6
9 15 5 14 10 4 6 7 6 8 11 11 9 10 8 7 6 9 13 13 12 11 12 12 12 12 12 11 11 8 8 9 8 8 10 13 9 9 8 8 8 7 7 6 7 7 6 5 5
5 12 18 14 9 9 9 17 18 13 10 10 9 11 10 9 7 11 10 12 13 13 14 13 13 13 13 14 12 10 8 9 9 9 12 13 12 10 10 8 8 8 8 9 7 7 6 5 4
16 7 10 15 19 6 11 20 1 7 20 18 17 15 14 14 13 13 12 10 8 9 11 13 12 15 16 13 11 9 9 9 9 9 10 14 14 13 11 9 8 9 8 8 8 8 7 6 6
16 13 20 8 19 14 18 9 10 4 8 11 10 11 13 15 15 15 15 13 12 11 12 13 14 16 16 15 11 12 12 10 10 10 10 14 15 15 12 10 9 11 9 9 8 8 8 7 7
21 22 13 16 9 20 15 17 4 7 5 9 10 10 11 14 15 13 11 11 13 12 13 13 12 15 15 9 8 7 8 10 10 11 11 14 13 16 13 11 12 11 10 10 9 10 9 8 8
11 17 10 14 6 12 16 12 15 14 14 14 14 14 13 13 10 10 11 11 10 11 11 13 13 15 11 9 8 9 9 10 8 9 14 15 14 16 15 12 13 12 13 13 12 11 11 7 7
12 16 15 3 9 7 6 9 11 14 16 13 14 14 13 10 11 11 11 11 12 12 13 13 13 14 14 11 11 11 10 9 10 6 10 14 16 16 16 16 14 15 12 15 14 14 9 9 10
14 15 13 5 7 3 2 9 11 4 2 3 1 1 0 2 4 4 6 7 7 10 12 12 13 14 13 16 11 9 8 6 7 8 10 14 16 16 18 18 14 14 13 12 14 14 15 10 9
8 6 11 12 10 4 3 3 4 5 8 7 7 6 5 5 5 6 7 6 4 3 5 8 10 11 11 13 13 16 13 12 11 11 11 11 15 14 17 17 16 15 12 13 14 12 14 11 11
4 6 10 6 5 2 5 5 9 8 9 9 7 6 6 5 5 7 8 7 7 7 5 3 5 8 10 10 13 12 14 11 10 10 13 13 11 12 13 15 16 15 12 14 14 14 15 11 10
10 9 10 6 2 4 5 5 9 8 9 8 5 5 5 6 6 6 6 6 8 7 6 6 5 3 4 8 10 14 15 14 11 11 10 9 8 6 11 11 12 12 12 14 13 13 16 13 10
6 10 4 4 4 1 1 5 5 8 4 8 5 5 5 5 6 7 7 7 8 9 8 6 7 5 4 1 6 10 13 14 14 13 10 11 8 5 8 11 11 10 12 11 12 13 13 14 12
14 2 3 6 6 6 3 6 5 2 5 5 1 0 2 5 6 7 8 7 6 7 8 8 9 8 6 4 3 3 6 7 9 11 10 9 9 7 9 9 10 10 10 10 10 9 10 12 10
5 3 3 5 2 2 5 3 2 7 10 5 2 3 3 4 6 7 7 7 6 8 9 9 9 8 8 7 5 5 4 5 5 8 8 7 9 7 9 8 9 8 8 8 8 7 9 10 8
1 8 3 1 5 5 6 4 7 12 10 6 4 2 2 2 5 6 6 7 7 7 8 9 9 9 8 8 6 6 6 6 5 5 6 7 7 6 8 6 6 7 8 8 9 7 7 8 5
4 3 2 2 3 2 4 4 7 17 13 9 4 1 0 2 5 6 6 5 5 6 7 8 9 10 10 9 8 7 6 7 6 6 5 6 5 4 4 4 5 6 6 7 7 7 9 10 10
1 2 4 3 4 2 2 4 5 15 11 2 5 2 1 1 5 5 5 6 6 7 8 8 8 9 8 8 7 6 6 6 6 6 6 5 5 3 2 2 3 5 6 7 8 9 9 12 12
Wind_Direction
236 242 247 222 229 240 233 220 245 183 194 138 317 244 271 318 273 23 59 142 153 154 151 159 154 157 159 155 150 143 135 135 131 132 138 137 136 139 136 135 141 149 159 157 146 126 119 109 109
207 207 216 201 239 220 220 221 215 217 93 322 250 227 242 303 326 56 143 143 156 151 148 157 155 157 158 153 151 146 145 140 132 131 139 134 132 138 128 132 159 170 176 151 149 129 117 112 115
208 230 213 218 228 230 233 209 232 225 306 331 269 256 302 51 74 87 77 150 154 154 155 140 154 153 151 151 156 150 147 142 139 141 135 124 125 129 134 146 129 101 164 128 140 128 121 125 123
185 190 217 231 223 228 230 194 160 178 164 273 336 224 202 34 5 52 136 155 157 157 160 134 149 152 147 152 156 155 152 137 142 132 129 135 130 138 129 140 136 103 101 114 127 123 120 131 125
205 217 219 226 233 225 226 207 162 158 139 267 340 344 308 87 80 129 143 155 151 160 150 156 149 153 158 155 151 159 150 135 140 137 135 141 138 139 142 94 117 110 107 111 118 122 122 128 126
188 230 219 219 226 221 223 215 232 240 247 265 279 294 9 92 129 137 152 159 158 159 160 155 153 152 164 156 162 166 141 147 146 140 146 151 154 147 157 174 115 110 122 122 122 123 125 131 133
224 208 224 229 228 221 219 215 220 230 240 241 268 260 93 137 111 146 159 161 155 164 167 167 167 159 154 157 171 156 168 149 147 146 155 155 145 154 166 159 130 135 120 119 122 125 128 131 131
223 236 228 227 227 235 206 195 226 230 243 111 242 229 196 71 134 144 166 169 162 174 172 172 175 177 178 175 172 151 141 147 150 152 141 134 136 149 166 171 160 147 133 128 132 137 137 129 126
212 222 222 215 223 219 195 209 194 203 217 204 195 272 40 88 141 150 168 171 171 177 186 180 180 182 186 182 153 156 148 141 166 146 136 150 177 175 158 137 142 150 144 143 144 143 132 123 109
205 218 220 223 217 215 179 212 184 187 198 208 204 197 45 161 173 175 179 181 186 183 197 192 187 184 188 186 179 197 181 199 194 174 178 193 174 171 175 148 154 144 142 148 155 143 142 201 161
213 226 197 205 198 183 170 195 189 200 198 204 204 180 133 172 191 197 197 198 197 194 189 191 196 195 191 187 189 190 195 197 198 194 188 191 178 163 180 162 172 171 183 178 181 163 193 192 180
221 228 258 200 167 167 170 175 201 214 165 170 126 81 122 184 199 206 207 204 200 200 194 200 198 204 202 196 198 193 196 197 200 199 195 190 189 184 180 184 182 187 187 186 196 189 182 187 187
224 195 216 229 156 161 134 190 219 229 190 174 238 248 209 220 201 211 219 220 217 211 204 205 204 204 216 205 202 201 203 200 200 200 199 195 194 195 188 190 189 193 193 193 194 198 189 199 190
202 224 202 226 216 213 229 218 216 225 241 233 233 247 240 239 224 210 207 215 218 216 212 206 209 206 222 215 212 208 205 201 206 202 202 201 203 203 201 197 201 197 199 199 201 199 199 194 194
185 206 224 232 220 229 236 254 227 238 229 231 220 240 244 235 226 230 218 223 219 210 210 210 212 212 212 224 216 219 215 209 206 207 205 205 207 209 205 210 199 208 200 201 205 197 203 191 189
199 222 196 212 216 190 190 251 224 234 229 237 243 243 246 247 246 247 241 235 224 232 224 213 206 211 215 219 220 218 219 218 214 210 205 208 212 211 207 209 209 206 202 204 203 198 199 199 194
199 209 214 194 209 198 205 247 217 245 203 223 231 234 241 254 252 250 252 247 245 231 229 225 220 215 216 220 219 220 220 220 219 215 213 209 213 214 216 214 211 208 206 203 205 202 206 197 200
195 211 205 206 179 207 214 236 196 189 228 248 248 246 239 243 252 254 261 249 245 241 236 232 225 225 220 214 213 211 219 222 227 221 217 213 214 214 213 219 217 209 205 209 204 204 204 208 199
210 195 195 219 183 200 223 232 232 253 269 261 258 256 253 246 262 272 265 264 254 249 244 235 227 226 222 194 202 213 214 216 218 220 228 217 216 214 213 218 216 211 210 207 204 203 198 202 192
183 192 196 119 192 217 173 232 232 234 245 261 269 265 268 275 265 270 271 259 249 245 235 237 234 231 225 216 214 223 216 220 227 221 222 232 220 218 212 216 216 209 211 210 204 200 195 202 194
200 200 180 186 154 171 251 244 219 183 197 197 115 149 118 310 312 319 300 276 254 243 243 237 233 231 232 231 224 225 237 224 214 214 215 217 226 225 219 219 213 213 208 208 204 199 197 191 198
171 237 167 145 180 195 235 179 139 120 115 130 115 97 80 59 58 51 41 43 20 309 271 252 250 244 238 234 235 225 223 225 224 229 229 229 223 225 229 226 220 212 209 204 200 196 201 194 192
118 146 136 145 132 199 194 245 116 147 136 127 110 85 66 50 45 53 50 49 53 41 24 313 250 239 232 230 231 231 232 236 232 230 233 228 224 214 227 231 227 219 213 219 202 197 200 200 197
135 91 86 87 114 218 152 258 156 177 158 140 118 79 56 43 45 56 61 54 54 47 39 38 42 47 232 226 227 236 242 241 239 242 241 239 231 214 220 226 225 223 217 217 214 211 208 201 207
186 151 113 148 190 215 151 203 57 150 167 144 118 86 49 31 37 37 35 29 32 31 28 22 16 31 32 115 224 234 245 248 245 245 244 248 244 213 220 217 224 219 218 212 213 212 211 208 206
178 273 179 161 185 131 145 220 132 269 176 151 195 75 42 41 31 25 15 7 13 17 19 10 7 6 358 354 338 261 250 249 244 250 252 255 254 235 235 230 225 221 220 214 211 208 209 207 212
175 202 25 105 66 193 165 184 154 132 152 195 175 156 74 35 19 15 7 2 357 1 6 7 5 1 359 345 327 310 292 266 263 266 260 260 260 259 245 221 218 210 200 198 199 207 205 204 191
256 127 165 320 155 202 181 207 139 170 162 148 138 115 94 26 13 6 359 359 0 6 5 9 13 14 3 353 354 344 343 331 314 287 271 267 269 267 260 227 208 197 191 186 181 177 168 156 143
139 181 63 57 314 222 164 135 150 161 148 119 74 55 78 16 8 356 360 7 32 26 16 10 8 7 11 9 9 6 2 359 355 354 347 336 321 290 254 215 191 179 171 168 153 132 130 124 117
293 202 198 247 178 26 1 92 178 154 148 106 12 350 148 67 21 24 43 51 43 33 27 24 17 13 9 4 10 16 14 13 13 14 13 8 1 351 315 167 155 144 138 130 131 127 124 125 122